This is the latest recevied weather packets stored in our database for station/object SQ2LXT-10. If no packets are shown the sender has not sent any weather packets the latest 10 day(s).
| Time | Temp. | Humidity | Pressure | Rain* | Wind** | Luminosity | Snow |
|---|---|---|---|---|---|---|---|
| 1777524310 | -0.56° C | 100% | 1026.4 hPa | - | - | - | - |
| 1777523411 | -1.67° C | 100% | 1026.4 hPa | - | - | - | - |
| 1777522509 | -2.22° C | 100% | 1026.6 hPa | - | - | - | - |
| 1777521609 | -2.22° C | 100% | 1026.7 hPa | - | - | - | - |
| 1777520709 | -3.89° C | 100% | 1026.6 hPa | - | - | - | - |
| 1777519809 | -5° C | 100% | 1026.6 hPa | - | - | - | - |
| 1777518909 | -5.56° C | 100% | 1026.6 hPa | - | - | - | - |
| 1777518011 | -5.56° C | 100% | 1026.7 hPa | - | - | - | - |
| 1777517109 | -5.56° C | 100% | 1026.6 hPa | - | - | - | - |
| 1777516209 | -5.56° C | 100% | 1026.6 hPa | - | - | - | - |
| 1777515309 | -5° C | 100% | 1026.5 hPa | - | - | - | - |
| 1777514410 | -5° C | 100% | 1026.4 hPa | - | - | - | - |
| 1777513509 | -5° C | 100% | 1026.4 hPa | - | - | - | - |
| 1777512609 | -5° C | 100% | 1026.3 hPa | - | - | - | - |
| 1777511709 | -4.44° C | 100% | 1026.4 hPa | - | - | - | - |
| 1777510809 | -4.44° C | 100% | 1026.4 hPa | - | - | - | - |
| 1777509909 | -4.44° C | 100% | 1026.4 hPa | - | - | - | - |
| 1777509012 | -4.44° C | 100% | 1026.2 hPa | - | - | - | - |
| 1777508108 | -3.89° C | 100% | 1026.3 hPa | - | - | - | - |
| 1777507209 | -3.89° C | 100% | 1026.3 hPa | - | - | - | - |
| 1777506308 | -3.89° C | 100% | 1026.3 hPa | - | - | - | - |
| 1777505411 | -3.89° C | 100% | 1026.2 hPa | - | - | - | - |
| 1777504507 | -3.33° C | 100% | 1026.4 hPa | - | - | - | - |
| 1777503611 | -3.33° C | 100% | 1026.2 hPa | - | - | - | - |
| 1777502707 | -3.33° C | 100% | 1026.4 hPa | - | - | - | - |
* Rain since midnight (hover to see other rain measurements)
** Current wind speed in m/s (hover to see current wind gust speed)